Weather History for FBMN - May, 2013

Change the Weather History Date:

Sunday, May 5, 2013

  Actual Average Record
Temperature  
Mean Temperature 68 °F -  
Max Temperature 83 °F 80 °F 94 °F (2012)
Min Temperature 54 °F 52 °F 54 °F (2013)
Cooling Degree Days 4    
Growing Degree Days 18 (Base 50)    
Moisture  
Dew Point 37 °F    
Average Humidity 28    
Maximum Humidity 39    
Minimum Humidity 21    
Precipitation  
Precipitation 0.00 in - - ()
Sea Level Pressure  
Sea Level Pressure 30.22 in    
Wind  
Wind Speed 9 mph ()    
Max Wind Speed 14 mph    
Max Gust Speed -    
Visibility 6.0 miles    
Events      
Averages and records for this station are not official NWS values.
T = Trace of Precipitation, MM = Missing Value Source: Averaged Metar Reports

Daily Weather History Graph

Daily Weather History Graph

Search for Another Location

Airport or City:

Trip Planner

Search our weather history database for the weather conditions in past years. The results will help you decide how hot, cold, wet, or windy it might be!

Date:

Astronomy

May. 05, 2013 Rise Set
Actual Time 6:43 AM CAT 6:02 PM CAT
Civil Twilight 6:20 AM CAT 6:24 PM CAT
Nautical Twilight 5:54 AM CAT 6:51 PM CAT
Astronomical Twilight 5:28 AM CAT 7:17 PM CAT
Moon 2:37 AM CAT (5/5) 2:58 PM CAT (5/5)
Length of Visible Light 12h 04m
Length of Day
11h 18m
Waning Crescent, 20% of the Moon is Illuminated
May 5
Waning Crescent
May 10
New
May 18
First Quarter
May 25
Full
May 31
Last Quarter

Hourly Weather History & Observations

Time (CAT) Temp. Dew Point Humidity Pressure Visibility Wind Dir Wind Speed Gust Speed Precip Events Conditions
1:00 AM 60.8 °F 35.6 °F 39% 30.18 in - SSE 9.2 mph - N/A   Clear
2:00 AM 61 °F 34 °F 24%  in 6 mi South 9.2 mph - -   Partly Cloudy
2:00 AM 60.8 °F 33.8 °F 36% 30.18 in - South 9.2 mph - N/A   Clear
4:00 AM 60.8 °F 30.2 °F 31% 30.18 in - South 10.4 mph - N/A   Clear
5:00 AM 60.8 °F 30.2 °F 31% 30.18 in - SSE 10.4 mph - N/A   Clear
6:00 AM 59.0 °F 28.4 °F 31% 30.21 in - SSE 10.4 mph - N/A   Clear
7:00 AM 60.8 °F 28.4 °F 29% 30.24 in - SSE 12.7 mph - N/A   Clear
8:00 AM 59 °F 29 °F 21%  in 6 mi SSE 11.5 mph - -  
8:00 AM 59.0 °F 28.4 °F 31% 30.27 in - SSE 11.5 mph - N/A   Clear
9:00 AM 66.2 °F 32.0 °F 28% 30.30 in - SSE 11.5 mph - N/A   Clear
10:00 AM 71.6 °F 35.6 °F 27% 30.30 in - ESE 12.7 mph - N/A   Clear
11:00 AM 75.2 °F 37.4 °F 25% 30.30 in - SE 13.8 mph - N/A   Clear
12:00 PM 78.8 °F 41.0 °F 26% 30.27 in - East 9.2 mph - N/A   Clear
1:00 PM 82.4 °F 42.8 °F 25% 30.24 in - ESE 9.2 mph - N/A   Clear
2:00 PM 82.4 °F 42.8 °F 25% 30.21 in - East 5.8 mph - N/A   Clear
3:00 PM 84.2 °F 41.0 °F 22% 30.18 in - ESE 12.7 mph - N/A   Clear
4:00 PM 84.2 °F 41.0 °F 22% 30.18 in - ESE 9.2 mph - N/A   Clear
5:00 PM 82.4 °F 41.0 °F 23% 30.18 in - SSE 9.2 mph - N/A   Clear
6:00 PM 78.8 °F 42.8 °F 28% 30.18 in - SE 5.8 mph - N/A   Clear
7:00 PM 73.4 °F 44.6 °F 36% 30.21 in - SSE 4.6 mph - N/A   Clear
8:00 PM 71 °F 43 °F 25%  in 6 mi SE 5.8 mph - -   Partly Cloudy
8:00 PM 71.6 °F 42.8 °F 35% 30.24 in - SE 5.8 mph - N/A   Clear
9:00 PM 68.0 °F 39.2 °F 35% 30.24 in - SE 8.1 mph - N/A   Clear